Terminal Aerodrome Forecast
Issued by NWS Wilmington, NC

Home | Current Version | Previous Version | Text Only | Print | Product List | Glossary On
Versions: 1 2 3 4 5 6 7 8 9 10 11 12
000
FTUS42 KILM 250533
TAFFLO
TAF
KFLO 250533Z 2506/2606 14008KT P6SM SCT040
      TEMPO 2509/2511 VRB03KT 4SM BR=

USA.gov is the U.S. government's official web portal to all federal, state and local government web resources and services.